Regional Weather Roundup
Issued by NWS

Home | Current Version | Previous Version | Graphics & Text | Print | Product List | Glossary On
Versions: 1 2 3 4 5 6 7 8 9 10 11 12 13 14 15 16 17 18 19 20 21 22 23 24 25 26 27 28 29 30 31 32 33 34 35 36 37 38 39 40 41 42 43 44 45 46 47 48 49 50
000
ASUS45 KSLC 301110
RWRUT

UTAH REGIONAL WEATHER ROUNDUP
NATIONAL WEATHER SERVICE SALT LAKE CITY UT
500 AM MDT TUE SEP 30 2014

UTZ001>011-023>025-301200-

NORTHERN UTAH

CITY           SKY/WX    TMP DP  RH WIND       PRES   REMARKS
HILL AFB       LGT RAIN  50  50  99 S7        29.99S
LOGAN          NOT AVBL
OGDEN          LGT RAIN  51  50  96 S7        29.97F
PROVO AIRPORT  CLOUDY    50  43  76 SE5       30.00F
SALT LAKE CITY CLOUDY    54  47  77 CALM      29.97F
VERNAL         PTCLDY    41  39  93 W3        29.97F
WENDOVER       PTCLDY    54  39  58 W7        29.98S
HEBER CITY     CLOUDY    45  41  87 E3        30.01S
WEST JORDAN    CLOUDY    52  46  82 CALM      29.98F

$$

UTZ012>022-026-027-301200-

SOUTHERN UTAH

CITY           SKY/WX    TMP DP  RH WIND       PRES   REMARKS
BRYCE CANYON   PTCLDY    35  33  92 CALM      30.11F
CEDAR CITY     CLEAR     48  40  73 S5        30.04F
MILFORD        PTCLDY    46  40  79 W7        30.01F
MOAB/CYNLANDS  CLOUDY    50  45  83 SE7       29.98F
PRICE          CLOUDY    49  44  83 CALM      30.02F
ST GEORGE      CLOUDY    57  43  58 SE6       29.97S
KANAB            N/A     46  43  87 CALM      30.07F

$$

REGIONAL REPORTS     COLORADO/ARIZONA

CITY           SKY/WX    TMP DP  RH WIND       PRES   REMARKS
CRAIG, CO      CLOUDY    46  38  73 W7        30.00F
GRAND JUNCTION MOCLDY    44  42  93 SE7       30.01F
RIFLE          PTCLDY    43  39  86 SE3       30.04S
MONTROSE       CLOUDY    39  38  96 S3        30.07F
CORTEZ         CLEAR     40  38  93 CALM      30.07S
PAGE, AZ       NOT AVBL
GRAND CANYON   CLEAR     34  32  92 CALM      30.11F
KINGMAN        NOT AVBL
FLAGSTAFF      CLEAR     34  31  88 CALM      30.13S

$$

REGIONAL REPORTS    NEVADA/IDAHO/WYOMING

CITY           SKY/WX    TMP DP  RH WIND       PRES   REMARKS
LAS VEGAS, NV  CLEAR     67  38  34 S10       29.87F
ELY            PTCLDY    38  36  92 CALM      30.08F
ELKO           PTCLDY    41  39  93 E3        30.02F
POCATELLO, ID  LGT RAIN  50  50 100 SW8       29.95F
BURLEY         CLOUDY    50  46  86 SW7       29.94S
EVANSTON, WY   CLOUDY    41  40  96 SW14      30.00F
ROCK SPRINGS   CLEAR     40  36  86 SW9       29.95F WCI  34

$$



USA.gov is the U.S. government's official web portal to all federal, state and local government web resources and services.